Altoona, PA

11:43 PM EDT on March 26, 2017 (GMT -0400)
Altoona-Blair County

Weather History for KAOO - October, 2015

Change the Weather History Date:

Wednesday, October 28, 2015

  Actual Average Record
Temperature  
Mean Temperature 58 °F 48 °F  
Max Temperature 66 °F 57 °F 81 °F (1971)
Min Temperature 50 °F 38 °F 22 °F (1976)
Degree Days  
Heating Degree Days 7 17  
Month to date heating degree days 353 382  
Since 1 July heating degree days 427 553  
Cooling Degree Days 0 0  
Month to date cooling degree days 1 0  
Year to date cooling degree days 696 522  
Growing Degree Days 8 (Base 50)    
Moisture  
Dew Point 53 °F    
Average Humidity 85    
Maximum Humidity 89    
Minimum Humidity 80    
Precipitation  
Precipitation 1.12 in 0.09 in 1.12 in (2015)
Month to date precipitation 2.61 2.33  
Year to date precipitation 29.71 26.71  
Sea Level Pressure  
Sea Level Pressure 29.90 in    
Wind  
Wind Speed 11 mph (SE)    
Max Wind Speed 22 mph    
Max Gust Speed 29 mph    
Visibility 6 miles    
Events Rain    
T = Trace of Precipitation, MM = Missing Value Source: NWS Daily Summary

Daily Weather History Graph

Daily Weather History Graph

Search for Another Location

Airport or City:

Trip Planner

Search our weather history database for the weather conditions in past years. The results will help you decide how hot, cold, wet, or windy it might be!

Date:

Astronomy

Oct. 28, 2015 Rise Set
Actual Time 7:38 AM EDT 6:15 PM EDT
Civil Twilight 7:10 AM EDT 6:43 PM EDT
Nautical Twilight 6:38 AM EDT 7:15 PM EDT
Astronomical Twilight 6:06 AM EDT 7:46 PM EDT
Moon 7:30 PM EDT (10/28) 8:44 AM EDT (10/28)
Length of Visible Light 11h 33m
Length of Day
10h 37m
Full, 98% of the Moon is Illuminated
Oct 28
Full
Nov 3
Last Quarter
Nov 11
New
Nov 19
First Quarter
Nov 25
Full

Hourly Weather History & Observations

Time (EDT) Temp. Dew Point Humidity Pressure Visibility Wind Dir Wind Speed Gust Speed Precip Events Conditions
12:53 AM 50.0 °F 45.0 °F 83% 30.31 in 6.0 mi ESE 8.1 mph - 0.10 in Rain Light Rain
1:07 AM 50.0 °F 45.0 °F 83% 30.28 in 6.0 mi ESE 8.1 mph - 0.03 in Rain Rain
1:53 AM 50.0 °F 45.0 °F 83% 30.26 in 10.0 mi East 8.1 mph - 0.07 in Rain Light Rain
2:25 AM 51.1 °F 46.0 °F 83% 30.23 in 9.0 mi ESE 16.1 mph 20.7 mph 0.01 in Rain Light Rain
2:53 AM 51.1 °F 46.0 °F 83% 30.23 in 6.0 mi ESE 12.7 mph - 0.03 in Rain Light Rain
3:53 AM 51.1 °F 46.0 °F 83% 30.18 in 5.0 mi East 15.0 mph 21.9 mph 0.08 in Rain Rain
4:06 AM 51.1 °F 46.0 °F 83% 30.16 in 5.0 mi East 11.5 mph 21.9 mph 0.03 in Rain Rain
4:36 AM 51.1 °F 46.0 °F 83% 30.15 in 4.0 mi East 15.0 mph 21.9 mph 0.08 in Rain Rain
4:53 AM 51.1 °F 46.0 °F 83% 30.14 in 3.0 mi ESE 16.1 mph 24.2 mph 0.12 in Rain Rain
5:53 AM 51.1 °F 46.0 °F 83% 30.12 in 5.0 mi ESE 13.8 mph 23.0 mph 0.06 in Rain Light Rain
6:00 AM 51.1 °F 46.0 °F 83% 30.10 in 5.0 mi ESE 16.1 mph 25.3 mph 0.01 in Rain Rain
6:53 AM 52.0 °F 46.9 °F 83% 30.09 in 6.0 mi ESE 13.8 mph 25.3 mph 0.05 in Rain Rain
7:53 AM 52.0 °F 48.0 °F 86% 30.06 in 5.0 mi ESE 11.5 mph 21.9 mph 0.06 in Rain Light Rain
8:08 AM 52.0 °F 48.0 °F 86% 30.04 in 1.8 mi ESE 9.2 mph - 0.03 in Rain Rain
8:25 AM 53.1 °F 48.0 °F 83% 30.03 in 2.5 mi ESE 12.7 mph - 0.07 in Rain Rain
8:53 AM 53.1 °F 48.9 °F 86% 30.02 in 2.0 mi East 10.4 mph - 0.12 in Rain Rain
9:12 AM 53.1 °F 48.9 °F 86% 30.00 in 4.0 mi ESE 8.1 mph - 0.04 in Rain Rain
9:36 AM 54.0 °F 50.0 °F 86% 30.00 in 2.5 mi ESE 12.7 mph - 0.09 in Rain Light Rain
9:43 AM 54.0 °F 50.0 °F 86% 29.99 in 4.0 mi ESE 13.8 mph 18.4 mph 0.10 in Rain Rain
9:53 AM 55.0 °F 50.0 °F 83% 29.99 in 3.0 mi ESE 13.8 mph 27.6 mph 0.11 in Rain Light Rain
10:02 AM 55.0 °F 51.1 °F 86% 29.98 in 4.0 mi SE 15.0 mph 26.5 mph 0.01 in Rain Light Rain
10:10 AM 55.0 °F 51.1 °F 86% 29.97 in 9.0 mi SE 9.2 mph 20.7 mph 0.01 in Rain Light Rain
10:25 AM 55.9 °F 51.1 °F 84% 29.95 in 10.0 mi SE 13.8 mph 21.9 mph 0.02 in Rain Light Rain
10:48 AM 57.2 °F 51.8 °F 82% 29.94 in 2.5 mi SE 13.8 mph 25.3 mph 0.03 in Rain Light Rain
10:53 AM 57.0 °F 52.0 °F 83% 29.94 in 3.0 mi SE 16.1 mph 21.9 mph 0.03 in Rain Light Rain
11:07 AM 57.0 °F 53.1 °F 87% 29.93 in 2.5 mi SE 9.2 mph 21.9 mph 0.01 in Rain Light Rain
11:11 AM 57.0 °F 53.1 °F 87% 29.93 in 3.0 mi SE 10.4 mph - 0.02 in Rain Light Rain
11:53 AM 59.0 °F 54.0 °F 83% 29.90 in 3.0 mi SE 8.1 mph 19.6 mph 0.05 in Rain Light Rain
12:17 PM 59.0 °F 55.0 °F 87% 29.88 in 2.0 mi SSE 8.1 mph - 0.02 in Rain Light Rain
12:32 PM 59.0 °F 55.0 °F 87% 29.87 in 1.8 mi SE 8.1 mph - 0.05 in Rain Rain
12:37 PM 59.0 °F 55.0 °F 87% 29.87 in 1.8 mi SSE 8.1 mph - 0.06 in Rain Rain
12:45 PM 60.1 °F 55.0 °F 83% 29.86 in 3.0 mi SSE 9.2 mph - 0.06 in Rain Light Rain
12:53 PM 60.1 °F 55.0 °F 83% 29.86 in 4.0 mi SSE 9.2 mph - 0.07 in Rain Light Rain
1:24 PM 60.1 °F 55.0 °F 83% 29.83 in 2.5 mi SE 11.5 mph 20.7 mph 0.07 in Rain Heavy Rain
1:41 PM 60.1 °F 55.9 °F 86% 29.79 in 3.0 mi ESE 10.4 mph - 0.13 in Rain Rain
1:51 PM 60.8 °F 55.4 °F 82% 29.79 in 5.0 mi Variable 5.8 mph 18.4 mph 0.14 in Rain Light Rain
1:53 PM 61.0 °F 55.9 °F 83% 29.78 in 6.0 mi SE 10.4 mph 18.4 mph 0.14 in Rain Light Rain
2:53 PM 63.0 °F 57.9 °F 84% 29.74 in 8.0 mi SSE 13.8 mph - 0.02 in Rain Light Rain
3:53 PM 66.0 °F 60.1 °F 81% 29.71 in 10.0 mi South 12.7 mph 27.6 mph 0.01 in   Overcast
4:53 PM 64.9 °F 60.1 °F 84% 29.69 in 10.0 mi South 11.5 mph 23.0 mph 0.00 in   Overcast
5:53 PM 64.9 °F 60.1 °F 84% 29.66 in 10.0 mi South 8.1 mph - 0.00 in   Overcast
6:07 PM 64.9 °F 60.1 °F 84% 29.66 in 10.0 mi South 8.1 mph - N/A   Overcast
6:53 PM 66.0 °F 60.1 °F 81% 29.63 in 10.0 mi South 9.2 mph - N/A   Overcast
7:53 PM 66.0 °F 60.1 °F 81% 29.60 in 10.0 mi South 8.1 mph - 0.00 in   Overcast
8:13 PM 66.0 °F 60.1 °F 81% 29.61 in 10.0 mi WSW 6.9 mph - N/A   Overcast
8:53 PM 64.0 °F 60.1 °F 87% 29.58 in 10.0 mi WSW 5.8 mph - N/A   Overcast
9:26 PM 64.0 °F 60.1 °F 87% 29.60 in 3.0 mi WSW 9.2 mph - 0.07 in Rain Rain
9:29 PM 64.0 °F 60.1 °F 87% 29.60 in 4.0 mi SW 11.5 mph - 0.07 in Rain Light Rain
9:37 PM 64.0 °F 61.0 °F 90% 29.59 in 10.0 mi SSW 8.1 mph - 0.07 in Rain Light Rain
9:53 PM 64.0 °F 60.1 °F 87% 29.60 in 10.0 mi SW 8.1 mph - 0.07 in   Overcast
10:53 PM 63.0 °F 59.0 °F 87% 29.60 in 8.0 mi WSW 3.5 mph - 0.01 in Rain Light Rain
11:53 PM 63.0 °F 57.9 °F 84% 29.59 in 10.0 mi SSW 10.4 mph - 0.03 in Rain Light Rain